PA3BWK Weather Reports


Display with metric or nautical units.
time (UTC)temp
F
wind
direction
speed
MPH
gust
MPH
rain 1hr
in
rain 24hr
in
rain mn
in
humidity
%
barometer
mb
20260503005003 56 0 0.0 0.0 0.00 0.35 0.31 91 1012.5
20260503004902 56 0 0.0 0.0 0.00 0.35 0.31 91 1012.6
20260503004803 56 0 0.0 0.0 0.00 0.35 0.31 91 1012.6
20260503004703 56 0 0.0 0.0 0.00 0.35 0.31 91 1012.6
20260503004604 56 0 0.0 0.0 0.00 0.35 0.31 91 1012.6
20260503004502 56 0 0.0 0.0 0.00 0.35 0.31 91 1012.6
20260503004402 56 0 0.0 0.0 0.00 0.35 0.31 91 1012.6
20260503004304 56 0 0.0 0.0 0.00 0.35 0.31 91 1012.5
20260503004202 56 0 0.0 0.0 0.00 0.35 0.31 91 1012.6
20260503004103 56 0 0.0 0.0 0.00 0.35 0.31 91 1012.6
20260503004002 56 0 0.0 0.0 0.00 0.35 0.31 91 1012.6
20260503003902 56 0 0.0 0.0 0.00 0.35 0.31 91 1012.7
20260503003803 56 0 0.0 0.0 0.00 0.35 0.31 91 1012.7
20260503003703 56 0 0.0 0.0 0.00 0.35 0.31 91 1012.7
20260503003602 56 0 0.0 0.0 0.00 0.35 0.31 91 1012.8
20260503003503 56 0 0.0 0.0 0.00 0.35 0.31 91 1012.8
20260503003404 56 0 0.0 0.0 0.00 0.35 0.31 91 1012.8
20260503003302 56 0 0.0 0.0 0.00 0.35 0.31 91 1012.9
20260503003202 56 0 0.0 0.0 0.00 0.35 0.31 91 1012.8
20260503003102 56 0 0.0 0.0 0.00 0.35 0.31 91 1012.9
20260503003002 56 0 0.0 0.0 0.00 0.35 0.31 91 1012.9
20260503002903 56 0 0.0 0.0 0.00 0.35 0.31 91 1013.0
20260503002802 56 0 0.0 0.0 0.00 0.35 0.31 91 1013.1
20260503002703 56 0 0.0 0.0 0.00 0.35 0.31 91 1013.0
20260503002602 56 0 0.0 0.0 0.00 0.35 0.31 91 1013.1
20260503002505 56 0 0.0 0.0 0.00 0.35 0.31 91 1013.0
20260503002403 56 0 0.0 0.0 0.00 0.35 0.31 91 1013.0
20260503002304 56 0 0.0 0.0 0.00 0.35 0.31 91 1013.1
20260503002202 56 0 0.0 0.0 0.00 0.35 0.31 91 1013.2
20260503002103 56 0 0.0 0.0 0.00 0.35 0.31 91 1013.2
20260503002003 56 0 0.0 0.0 0.00 0.35 0.31 91 1013.3
20260503001902 56 0 0.0 0.0 0.00 0.35 0.31 91 1013.3
20260503001802 56 0 0.0 0.0 0.00 0.35 0.31 91 1013.2
20260503001702 56 0 0.0 0.0 0.00 0.35 0.31 91 1013.2
20260503001603 56 0 0.0 0.0 0.00 0.35 0.31 91 1013.2
20260503001503 56 0 0.0 0.0 0.00 0.35 0.31 91 1013.2
20260503001403 56 0 0.0 0.0 0.00 0.35 0.31 91 1013.2
20260503001302 56 0 0.0 0.0 0.00 0.35 0.31 91 1013.3
20260503001204 56 0 0.0 0.0 0.00 0.35 0.31 91 1013.4
20260503001102 56 0 0.0 0.0 0.00 0.35 0.31 91 1013.3
20260503001003 56 0 0.0 0.0 0.00 0.35 0.31 91 1013.3
20260503000902 56 0 0.0 0.0 0.00 0.35 0.31 91 1013.3
20260503000812 56 0 0.0 0.0 0.00 0.35 0.31 91 1013.3
20260503000702 56 0 0.0 0.0 0.00 0.35 0.31 90 1013.3
20260503000602 56 0 0.0 0.0 0.00 0.35 0.31 90 1013.2
20260503000504 56 0 0.0 0.0 0.00 0.35 0.31 90 1013.2
20260503000402 56 0 0.0 0.0 0.00 0.35 0.31 90 1013.2
20260503000303 56 0 0.0 0.0 0.00 0.35 0.31 90 1013.2
20260503000203 56 0 0.0 0.0 0.00 0.35 0.31 90 1013.2
20260503000004 56 0 0.0 0.0 0.00 0.35 0.31 90 1013.2
20260502235904 56 0 0.0 0.0 0.00 0.35 0.31 90 1013.1
20260502235803 56 0 0.0 0.0 0.00 0.35 0.31 90 1013.1
20260502235702 56 0 0.0 0.0 0.00 0.35 0.31 90 1013.2
20260502235602 56 0 0.0 0.0 0.00 0.35 0.31 90 1013.2
20260502235504 56 0 0.0 0.0 0.00 0.35 0.31 90 1013.1
20260502235402 56 0 0.0 0.0 0.00 0.35 0.31 90 1013.1
20260502235304 56 0 0.0 0.0 0.01 0.35 0.31 90 1013.1
20260502235202 56 0 0.0 0.0 0.01 0.35 0.31 90 1013.2
20260502235103 56 0 0.0 0.0 0.01 0.35 0.31 90 1013.1
20260502235003 56 0 0.0 0.0 0.01 0.35 0.31 90 1013.1
20260502234903 56 0 0.0 0.0 0.01 0.35 0.31 90 1013.3
20260502234802 56 0 0.0 0.0 0.01 0.35 0.31 90 1013.3
20260502234703 56 0 0.0 0.0 0.02 0.35 0.31 90 1013.3
20260502234603 56 0 0.0 0.0 0.02 0.35 0.31 90 1013.3
20260502234503 56 0 0.0 0.0 0.02 0.35 0.31 90 1013.2
20260502234406 56 0 0.0 0.0 0.02 0.35 0.31 90 1013.3
20260502234303 56 0 0.0 0.0 0.02 0.35 0.31 90 1013.3
20260502234202 56 0 0.0 0.0 0.03 0.35 0.31 90 1013.3
20260502234103 56 0 0.0 0.0 0.04 0.35 0.31 90 1013.3
20260502234003 56 0 0.0 0.0 0.04 0.35 0.31 90 1013.3
20260502233903 56 0 0.0 0.0 0.05 0.35 0.31 90 1013.3
20260502233801 56 0 0.0 0.0 0.06 0.35 0.31 90 1013.4
20260502233703 56 0 0.0 0.0 0.06 0.35 0.31 90 1013.4
20260502233603 56 0 0.0 0.0 0.06 0.35 0.31 90 1013.5
20260502233503 56 0 0.0 0.0 0.07 0.35 0.31 90 1013.4
20260502233402 56 0 0.0 0.0 0.07 0.35 0.31 90 1013.5
20260502233302 56 0 0.0 0.0 0.08 0.35 0.31 90 1013.5
20260502233203 56 0 0.0 0.0 0.08 0.35 0.31 90 1013.5
20260502233103 56 0 0.0 0.0 0.09 0.35 0.31 90 1013.5
20260502233002 56 0 0.0 0.0 0.09 0.35 0.31 90 1013.6
20260502232902 56 0 0.0 0.0 0.10 0.35 0.31 90 1013.6
20260502232802 56 0 0.0 0.0 0.11 0.35 0.31 90 1013.6
20260502232704 56 0 0.0 0.0 0.11 0.35 0.31 90 1013.6
20260502232611 56 0 0.0 0.0 0.12 0.35 0.31 90 1013.6
20260502232504 56 0 0.0 0.0 0.12 0.35 0.31 89 1013.7
20260502232402 56 0 0.0 0.0 0.12 0.35 0.31 89 1013.7
20260502232304 56 0 0.0 0.0 0.13 0.35 0.31 89 1013.7
20260502232203 56 0 0.0 0.0 0.13 0.35 0.31 89 1013.7
20260502232103 56 0 0.0 0.0 0.13 0.35 0.31 89 1013.7
20260502232002 56 0 0.0 0.0 0.13 0.35 0.31 89 1013.7
20260502231902 56 0 0.0 0.0 0.13 0.35 0.31 89 1013.7
20260502231802 56 0 0.0 0.0 0.13 0.35 0.31 89 1013.7
20260502231703 56 0 0.0 0.0 0.13 0.35 0.31 89 1013.7
20260502231602 56 0 0.0 0.0 0.13 0.35 0.31 89 1013.7
20260502231503 56 0 0.0 0.0 0.14 0.35 0.31 89 1013.7
20260502231402 56 0 0.0 0.0 0.14 0.35 0.31 89 1013.7
20260502231302 56 0 0.0 0.0 0.14 0.35 0.31 89 1013.7
20260502231202 56 0 0.0 0.0 0.15 0.35 0.31 89 1013.7
20260502231104 56 0 0.0 0.0 0.16 0.35 0.31 89 1013.7
20260502231002 56 0 0.0 0.0 0.17 0.35 0.31 89 1013.7
20260502230902 56 0 0.0 0.0 0.19 0.35 0.31 89 1013.7
20260502230804 56 0 0.0 0.0 0.21 0.35 0.31 89 1013.6
20260502230702 56 0 0.0 0.0 0.24 0.35 0.31 89 1013.6
20260502230603 56 0 0.0 0.0 0.27 0.35 0.31 89 1013.7
20260502230503 56 0 0.0 0.0 0.29 0.35 0.31 89 1013.6
20260502230402 56 0 0.0 0.0 0.30 0.35 0.31 89 1013.6
20260502230312 56 0 0.0 0.0 0.30 0.35 0.31 89 1013.5
20260502230202 56 0 0.0 0.0 0.31 0.35 0.31 88 1013.4
20260502230104 56 0 0.0 0.0 0.31 0.35 0.31 88 1013.5
20260502230003 56 0 0.0 0.0 0.31 0.35 0.31 88 1013.4
20260502225902 56 0 0.0 0.0 0.31 0.04 0.31 88 1013.4
20260502225802 56 0 0.0 0.0 0.31 0.04 0.31 88 1013.4
20260502225702 56 0 0.0 0.0 0.31 0.04 0.31 88 1013.4
20260502225602 56 0 0.0 0.0 0.31 0.04 0.31 88 1013.4
20260502225504 56 0 0.0 0.0 0.31 0.04 0.31 88 1013.4
20260502225403 56 0 0.0 0.0 0.31 0.04 0.30 88 1013.5
20260502225304 56 0 0.0 0.0 0.31 0.04 0.30 88 1013.5
20260502225202 56 0 0.0 0.0 0.31 0.04 0.30 88 1013.6
20260502225105 56 0 0.0 0.0 0.31 0.04 0.30 88 1013.6
20260502225005 56 0 0.0 0.0 0.31 0.04 0.30 88 1013.7
20260502224902 56 0 0.0 0.0 0.31 0.04 0.30 88 1013.8
20260502224804 56 0 0.0 0.0 0.32 0.04 0.29 87 1013.9
20260502224703 56 0 0.0 0.0 0.32 0.04 0.29 87 1014.0
20260502224603 56 0 0.0 0.0 0.32 0.04 0.28 87 1014.0
20260502224502 56 0 0.0 0.0 0.31 0.04 0.28 87 1014.0
20260502224402 56 0 0.0 0.0 0.31 0.04 0.28 87 1014.0
20260502224302 56 0 0.0 0.0 0.31 0.04 0.28 87 1014.0
20260502224203 56 0 0.0 0.0 0.31 0.04 0.27 87 1014.0
20260502224102 56 0 0.0 0.0 0.31 0.04 0.27 87 1014.1
20260502224004 56 0 0.0 0.0 0.31 0.04 0.26 86 1014.1
20260502223902 56 0 0.0 0.0 0.30 0.04 0.25 86 1014.2
20260502223803 56 0 0.0 0.0 0.29 0.04 0.25 86 1014.3
20260502223703 56 0 0.0 0.0 0.29 0.04 0.24 86 1014.4
20260502223603 56 0 0.0 0.0 0.28 0.04 0.24 86 1014.4
20260502223503 57 0 0.0 0.0 0.28 0.04 0.24 86 1014.4
20260502223402 57 0 0.0 0.0 0.28 0.04 0.23 86 1014.6
20260502223302 57 0 0.0 0.0 0.27 0.04 0.22 86 1014.6
20260502223203 57 0 0.0 0.0 0.26 0.04 0.22 86 1014.8
20260502223102 57 0 0.0 0.0 0.26 0.04 0.22 85 1014.9
20260502223004 57 0 0.0 0.0 0.25 0.04 0.20 85 1014.9
20260502222903 57 0 0.0 0.0 0.24 0.04 0.20 85 1014.9
20260502222804 57 0 0.0 0.0 0.24 0.04 0.20 85 1014.9
20260502222704 57 0 0.0 0.0 0.24 0.04 0.19 85 1015.0
20260502222602 57 0 0.0 0.0 0.23 0.04 0.19 85 1015.1
20260502222459 57 0 0.0 0.0 0.23 0.04 0.19 85 1015.1
20260502222359 57 0 0.0 0.0 0.23 0.04 0.18 85 1015.1
20260502222258 57 0 0.0 0.0 0.22 0.04 0.18 84 1015.2
20260502222155 57 0 0.0 0.0 0.22 0.04 0.17 84 1015.2
20260502222053 57 0 0.0 0.0 0.21 0.04 0.17 84 1015.3
20260502221949 57 0 0.0 0.0 0.21 0.04 0.17 84 1015.3
20260502221850 57 0 0.0 0.0 0.21 0.04 0.17 83 1015.4
20260502221750 57 0 0.0 0.0 0.21 0.04 0.17 83 1015.4
20260502221651 57 0 0.0 0.0 0.21 0.04 0.17 83 1015.4
20260502221550 57 0 0.0 0.0 0.21 0.04 0.17 83 1015.3
20260502221449 57 0 0.0 0.0 0.20 0.04 0.17 83 1015.3
20260502221349 57 0 0.0 0.0 0.20 0.04 0.17 83 1015.4
20260502221250 58 0 0.0 0.0 0.20 0.04 0.16 82 1015.4
20260502221150 58 0 0.0 0.0 0.20 0.04 0.15 82 1015.4
20260502221051 58 0 0.0 0.0 0.19 0.04 0.13 81 1015.4
20260502220949 58 0 0.0 0.0 0.17 0.04 0.12 81 1015.5
20260502220848 58 0 0.0 0.0 0.15 0.04 0.09 81 1015.6
20260502220744 58 0 0.0 0.0 0.13 0.04 0.06 81 1015.6
20260502220645 58 0 0.0 0.0 0.10 0.04 0.04 80 1015.6
20260502220543 58 0 0.0 0.0 0.06 0.04 0.02 80 1015.6
20260502220440 58 0 0.0 0.0 0.05 0.04 0.01 80 1015.7
20260502220338 58 0 0.0 0.0 0.05 0.04 0.01 79 1015.7
20260502220238 58 0 0.0 0.0 0.04 0.04 0.00 79 1015.7
20260502220135 58 0 0.0 0.0 0.04 0.04 0.00 79 1015.9
20260502220034 58 0 0.0 0.0 0.04 0.04 0.00 79 1015.9
20260502215933 58 0 0.0 0.0 0.04 0.00 0.04 78 1015.8
20260502215832 58 0 0.0 0.0 0.04 0.00 0.03 78 1015.9
20260502215732 58 0 0.0 0.0 0.03 0.00 0.03 77 1016.1
20260502215632 58 0 0.0 0.0 0.03 0.00 0.03 77 1016.2
20260502215533 58 0 0.0 0.0 0.03 0.00 0.03 76 1016.2
20260502215433 58 0 0.0 0.0 0.03 0.00 0.03 76 1016.1
20260502215332 58 0 0.0 0.0 0.03 0.00 0.03 75 1016.0
20260502215233 59 0 0.0 0.0 0.03 0.00 0.02 74 1015.8
20260502215132 59 0 0.0 0.0 0.02 0.00 0.02 73 1015.6
20260502215034 59 0 0.0 0.0 0.02 0.00 0.02 72 1015.6
20260502214932 59 0 0.0 0.0 0.02 0.00 0.02 71 1015.6
20260502214833 59 0 0.0 0.0 0.02 0.00 0.02 70 1015.7
20260502214732 59 0 0.0 0.0 0.02 0.00 0.01 70 1015.6
20260502214632 60 0 0.0 0.0 0.01 0.00 0.01 70 1015.6
20260502214532 60 0 0.0 0.0 0.01 0.00 0.01 68 1015.6
20260502214432 60 0 0.0 0.0 0.01 0.00 0.01 68 1015.6
20260502214332 60 0 0.0 0.0 0.01 0.00 0.00 67 1015.6
20260502214234 60 0 0.0 0.0 0.00 0.00 0.00 65 1015.0
20260502214132 60 0 0.0 0.0 0.00 0.00 0.00 65 1014.6
20260502214035 60 0 0.0 0.0 0.00 0.00 0.00 64 1014.4
20260502213932 60 0 0.0 0.0 0.00 0.00 0.00 64 1014.4
20260502213832 60 0 0.0 0.0 0.00 0.00 0.00 64 1014.4
20260502213733 60 0 0.0 0.0 0.00 0.00 0.00 63 1014.3
20260502213634 60 0 0.0 0.0 0.00 0.00 0.00 63 1014.4
20260502213532 60 0 0.0 0.0 0.00 0.00 0.00 63 1014.4
20260502213432 60 0 0.0 0.0 0.00 0.00 0.00 63 1014.2
20260502213332 60 0 0.0 0.0 0.00 0.00 0.00 63 1014.3
20260502213232 60 0 0.0 0.0 0.00 0.00 0.00 63 1014.2
20260502213134 60 0 0.0 0.0 0.00 0.00 0.00 63 1014.2
20260502213033 60 0 0.0 0.0 0.00 0.00 0.00 63 1014.2
20260502212931 60 0 0.0 0.0 0.00 0.00 0.00 63 1014.1
20260502212832 60 0 0.0 0.0 0.00 0.00 0.00 63 1014.2
20260502212742 60 0 0.0 0.0 0.00 0.00 0.00 63 1014.1
20260502212634 60 0 0.0 0.0 0.00 0.00 0.00 63 1014.2
20260502212533 60 0 0.0 0.0 0.00 0.00 0.00 63 1014.2
20260502212434 60 0 0.0 0.0 0.00 0.00 0.00 63 1014.2
20260502212332 60 0 0.0 0.0 0.00 0.00 0.00 63 1014.2
20260502212231 60 0 0.0 0.0 0.00 0.00 0.00 63 1014.2
20260502212132 60 0 0.0 0.0 0.00 0.00 0.00 63 1014.3
20260502212032 60 0 0.0 0.0 0.00 0.00 0.00 63 1014.2
20260502211932 60 0 0.0 0.0 0.00 0.00 0.00 63 1014.3
20260502211832 60 0 0.0 0.0 0.00 0.00 0.00 63 1014.3
20260502211733 60 0 0.0 0.0 0.00 0.00 0.00 63 1014.2
20260502211632 60 0 0.0 0.0 0.00 0.00 0.00 63 1014.2
20260502211533 60 0 0.0 0.0 0.00 0.00 0.00 63 1014.3
20260502211433 60 0 0.0 0.0 0.00 0.00 0.00 63 1014.4
20260502211341 60 0 0.0 0.0 0.00 0.00 0.00 63 1014.4
20260502211232 60 0 0.0 0.0 0.00 0.00 0.00 63 1014.4
20260502211132 60 0 0.0 0.0 0.00 0.00 0.00 63 1014.2
20260502211032 60 0 0.0 0.0 0.00 0.00 0.00 63 1014.3
20260502210933 60 0 0.0 0.0 0.00 0.00 0.00 63 1014.4
20260502210834 60 0 0.0 0.0 0.00 0.00 0.00 63 1014.6
20260502210733 60 0 0.0 0.0 0.00 0.00 0.00 63 1014.6
20260502210631 60 0 0.0 0.0 0.00 0.00 0.00 63 1014.5
20260502210533 60 0 0.0 0.0 0.00 0.00 0.00 63 1014.4
20260502210431 60 0 0.0 0.0 0.00 0.00 0.00 63 1014.4
20260502210326 60 0 0.0 0.0 0.00 0.00 0.00 63 1014.4
20260502210227 60 0 0.0 0.0 0.00 0.00 0.00 63 1014.6
20260502210124 60 0 0.0 0.0 0.00 0.00 0.00 63 1014.6
20260502210023 60 0 0.0 0.0 0.00 0.00 0.00 62 1014.6
20260502205919 60 0 0.0 0.0 0.00 0.00 0.00 62 1014.5
20260502205817 60 0 0.0 0.0 0.00 0.00 0.00 62 1014.2
20260502205717 60 0 0.0 0.0 0.00 0.00 0.00 62 1014.2
20260502205615 60 0 0.0 0.0 0.00 0.00 0.00 62 1014.1
20260502205512 60 0 0.0 0.0 0.00 0.00 0.00 62 1014.1
20260502205411 60 0 0.0 0.0 0.00 0.00 0.00 62 1014.1
20260502205311 60 0 0.0 0.0 0.00 0.00 0.00 62 1014.1
20260502205208 60 0 0.0 0.0 0.00 0.00 0.00 62 1014.1
20260502205106 60 0 0.0 0.0 0.00 0.00 0.00 62 1014.1
20260502205004 60 0 0.0 0.0 0.00 0.00 0.00 62 1014.1
20260502204904 60 0 0.0 0.0 0.00 0.00 0.00 62 1014.0
20260502204804 60 0 0.0 0.0 0.00 0.00 0.00 62 1014.1
20260502204704 60 0 0.0 0.0 0.00 0.00 0.00 62 1014.1
20260502204603 60 0 0.0 0.0 0.00 0.00 0.00 62 1014.2
20260502204504 60 0 0.0 0.0 0.00 0.00 0.00 62 1014.2
20260502204404 60 0 0.0 0.0 0.00 0.00 0.00 62 1014.2
20260502204305 60 0 0.0 0.0 0.00 0.00 0.00 62 1014.2
20260502204203 60 0 0.0 0.0 0.00 0.00 0.00 62 1014.2
20260502204104 60 0 0.0 0.0 0.00 0.00 0.00 63 1014.1
20260502204004 60 0 0.0 0.0 0.00 0.00 0.00 63 1014.2
20260502203904 60 0 0.0 0.0 0.00 0.00 0.00 63 1014.3
20260502203803 60 0 0.0 0.0 0.00 0.00 0.00 63 1014.3
20260502203703 60 0 0.0 0.0 0.00 0.00 0.00 63 1014.3
20260502203605 60 0 0.0 0.0 0.00 0.00 0.00 63 1014.4
20260502203503 60 0 0.0 0.0 0.00 0.00 0.00 63 1014.4
20260502203403 60 0 0.0 0.0 0.00 0.00 0.00 63 1014.5
20260502203307 60 0 0.0 0.0 0.00 0.00 0.00 63 1014.4
20260502203204 60 0 0.0 0.0 0.00 0.00 0.00 63 1014.4
20260502203106 60 0 0.0 0.0 0.00 0.00 0.00 63 1014.5
20260502203004 60 0 0.0 0.0 0.00 0.00 0.00 63 1014.5
20260502202903 60 0 0.0 0.0 0.00 0.00 0.00 63 1014.5
20260502202804 60 0 0.0 0.0 0.00 0.00 0.00 63 1014.5
20260502202704 60 0 0.0 0.0 0.00 0.00 0.00 63 1014.5
20260502202604 60 0 0.0 0.0 0.00 0.00 0.00 63 1014.6
20260502202506 60 0 0.0 0.0 0.00 0.00 0.00 63 1014.6
20260502202404 60 0 0.0 0.0 0.00 0.00 0.00 63 1014.6
20260502202306 60 0 0.0 0.0 0.00 0.00 0.00 63 1014.6
20260502202204 60 0 0.0 0.0 0.00 0.00 0.00 63 1014.5
20260502202105 60 0 0.0 0.0 0.00 0.00 0.00 63 1014.5
20260502202004 60 0 0.0 0.0 0.00 0.00 0.00 63 1014.6
20260502201904 60 0 0.0 0.0 0.00 0.00 0.00 63 1014.6
20260502201804 60 0 0.0 0.0 0.00 0.00 0.00 63 1014.6
20260502201734 60 0 0.0 0.0 0.00 0.00 0.00 63 1014.6
20260502201602 60 0 0.0 0.0 0.00 0.00 0.00 63 1014.6
20260502201502 60 0 0.0 0.0 0.00 0.00 0.00 63 1014.6
20260502201404 60 0 0.0 0.0 0.00 0.00 0.00 63 1014.7
20260502201302 60 0 0.0 0.0 0.00 0.00 0.00 63 1014.6
20260502201204 60 0 0.0 0.0 0.00 0.00 0.00 63 1014.7
20260502201102 60 0 0.0 0.0 0.00 0.00 0.00 63 1014.7
20260502201003 60 0 0.0 0.0 0.00 0.00 0.00 63 1014.7
20260502200902 60 0 0.0 0.0 0.00 0.00 0.00 63 1014.7
20260502200801 60 0 0.0 0.0 0.00 0.00 0.00 63 1014.7
20260502200659 60 0 0.0 0.0 0.00 0.00 0.00 63 1014.7
20260502200557 60 0 0.0 0.0 0.00 0.00 0.00 63 1014.7
20260502200456 60 0 0.0 0.0 0.00 0.00 0.00 64 1014.7
20260502200426 60 0 0.0 0.0 0.00 0.00 0.00 64 1014.7
20260502200251 60 0 0.0 0.0 0.00 0.00 0.00 64 1014.7
20260502200151 60 0 0.0 0.0 0.00 0.00 0.00 64 1014.7
20260502200052 60 0 0.0 0.0 0.00 0.00 0.00 64 1014.7
20260502195947 60 0 0.0 0.0 0.00 0.00 0.00 64 1014.8
20260502195847 60 0 0.0 0.0 0.00 0.00 0.00 64 1014.8
20260502195747 60 0 0.0 0.0 0.00 0.00 0.00 64 1014.8
20260502195649 60 0 0.0 0.0 0.00 0.00 0.00 64 1014.9
20260502195549 60 0 0.0 0.0 0.00 0.00 0.00 64 1014.9
20260502195448 60 0 0.0 0.0 0.00 0.00 0.00 64 1014.8
20260502195349 60 0 0.0 0.0 0.00 0.00 0.00 64 1014.8
20260502195248 61 0 0.0 0.0 0.00 0.00 0.00 63 1014.9
20260502195150 61 0 0.0 0.0 0.00 0.00 0.00 63 1014.9
20260502195048 61 0 0.0 0.0 0.00 0.00 0.00 63 1014.9
20260502194948 61 0 0.0 0.0 0.00 0.00 0.00 63 1014.9
20260502194849 61 0 0.0 0.0 0.00 0.00 0.00 63 1014.9
20260502194747 61 0 0.0 0.0 0.00 0.00 0.00 63 1014.9
20260502194649 61 0 0.0 0.0 0.00 0.00 0.00 63 1014.9
20260502194548 61 0 0.0 0.0 0.00 0.00 0.00 63 1015.0
20260502194447 61 0 0.0 0.0 0.00 0.00 0.00 63 1015.0
20260502194348 61 0 0.0 0.0 0.00 0.00 0.00 63 1015.0
20260502194316 61 0 0.0 0.0 0.00 0.00 0.00 63 1015.0
20260502194150 61 0 0.0 0.0 0.00 0.00 0.00 62 1015.1
20260502194047 61 0 0.0 0.0 0.00 0.00 0.00 62 1015.1
20260502193948 62 0 0.0 0.0 0.00 0.00 0.00 62 1015.0
20260502193847 62 0 0.0 0.0 0.00 0.00 0.00 62 1015.1
20260502193746 62 0 0.0 0.0 0.00 0.00 0.00 62 1015.0
20260502193645 62 0 0.0 0.0 0.00 0.00 0.00 62 1015.1
20260502193545 62 0 0.0 0.0 0.00 0.00 0.00 62 1015.1
20260502193442 62 0 0.0 0.0 0.00 0.00 0.00 61 1015.0
20260502193342 62 0 0.0 0.0 0.00 0.00 0.00 61 1015.0
20260502193240 62 0 0.0 0.0 0.00 0.00 0.00 61 1015.1
20260502193137 62 0 0.0 0.0 0.00 0.00 0.00 61 1015.1
20260502193034 62 0 0.0 0.0 0.00 0.00 0.00 61 1015.0
20260502193002 62 0 0.0 0.0 0.00 0.00 0.00 61 1015.1
20260502192832 62 0 0.0 0.0 0.00 0.00 0.00 61 1015.1
20260502192734 62 0 0.0 0.0 0.00 0.00 0.00 61 1015.0
20260502192633 63 0 0.0 0.0 0.00 0.00 0.00 60 1015.1
20260502192534 63 0 0.0 0.0 0.00 0.00 0.00 60 1015.0
20260502192432 63 0 0.0 0.0 0.00 0.00 0.00 60 1015.0
20260502192333 63 0 0.0 0.0 0.00 0.00 0.00 60 1015.0
20260502192232 63 0 0.0 0.0 0.00 0.00 0.00 60 1015.0
20260502192132 63 0 0.0 0.0 0.00 0.00 0.00 60 1015.0
20260502192033 63 0 0.0 0.0 0.00 0.00 0.00 60 1015.0
20260502191931 63 0 0.0 0.0 0.00 0.00 0.00 60 1014.9
20260502191832 63 0 0.0 0.0 0.00 0.00 0.00 59 1015.0
20260502191801 63 0 0.0 0.0 0.00 0.00 0.00 58 1015.0
20260502191633 63 0 0.0 0.0 0.00 0.00 0.00 58 1014.9
20260502191534 63 0 0.0 0.0 0.00 0.00 0.00 58 1014.9
20260502191432 63 0 0.0 0.0 0.00 0.00 0.00 58 1015.0
20260502191332 63 0 0.0 0.0 0.00 0.00 0.00 58 1014.9
20260502191232 64 0 0.0 0.0 0.00 0.00 0.00 58 1014.9
20260502191133 64 0 0.0 0.0 0.00 0.00 0.00 58 1015.0
20260502191029 64 0 0.0 0.0 0.00 0.00 0.00 58 1015.0
20260502190929 64 0 0.0 0.0 0.00 0.00 0.00 57 1015.0
20260502190824 64 0 0.0 0.0 0.00 0.00 0.00 57 1014.9
20260502190721 64 0 0.0 0.0 0.00 0.00 0.00 57 1014.9
20260502190621 64 0 0.0 0.0 0.00 0.00 0.00 57 1014.9
20260502190520 64 0 0.0 0.0 0.00 0.00 0.00 57 1014.9
20260502190419 64 0 0.0 0.0 0.00 0.00 0.00 57 1014.8
20260502190316 64 0 0.0 0.0 0.00 0.00 0.00 57 1014.9
20260502190217 64 0 0.0 0.0 0.00 0.00 0.00 57 1014.8
20260502190116 64 0 0.0 0.0 0.00 0.00 0.00 57 1014.8
20260502190011 64 0 0.0 0.0 0.00 0.00 0.00 57 1014.8
20260502185910 64 0 0.0 0.0 0.00 0.00 0.00 56 1014.9
20260502185808 64 0 0.0 0.0 0.00 0.00 0.00 56 1014.9
20260502185707 64 0 0.0 0.0 0.00 0.00 0.00 56 1014.9
20260502185606 64 0 0.0 0.0 0.00 0.00 0.00 56 1014.9
20260502185505 64 0 0.0 0.0 0.00 0.00 0.00 56 1015.0
20260502185404 65 0 0.0 0.0 0.00 0.00 0.00 56 1015.0
20260502185305 65 0 0.0 0.0 0.00 0.00 0.00 56 1015.0
20260502185204 65 0 0.0 0.0 0.00 0.00 0.00 56 1015.1
20260502185105 65 0 0.0 0.0 0.00 0.00 0.00 56 1015.0
20260502185003 65 0 0.0 0.0 0.00 0.00 0.00 56 1015.0
20260502184903 65 0 0.0 0.0 0.00 0.00 0.00 56 1015.1
20260502184805 65 0 0.0 0.0 0.00 0.00 0.00 56 1015.0
20260502184703 65 0 0.0 0.0 0.00 0.00 0.00 56 1015.0
20260502184603 65 0 0.0 0.0 0.00 0.00 0.00 56 1015.0
20260502184504 65 0 0.0 0.0 0.00 0.00 0.00 56 1015.0
20260502184406 65 0 0.0 0.0 0.00 0.00 0.00 56 1015.0
20260502184304 65 0 0.0 0.0 0.00 0.00 0.00 56 1015.0
20260502184203 65 0 0.0 0.0 0.00 0.00 0.00 56 1015.0
20260502184113 65 0 0.0 0.0 0.00 0.00 0.00 56 1015.0
20260502184004 65 0 0.0 0.0 0.00 0.00 0.00 55 1015.0
20260502183904 65 0 0.0 0.0 0.00 0.00 0.00 55 1015.0
20260502183805 66 0 0.0 0.0 0.00 0.00 0.00 55 1015.0
20260502183704 66 0 0.0 0.0 0.00 0.00 0.00 55 1015.0
20260502183603 66 0 0.0 0.0 0.00 0.00 0.00 55 1014.9
20260502183505 66 0 0.0 0.0 0.00 0.00 0.00 55 1014.9
20260502183403 66 0 0.0 0.0 0.00 0.00 0.00 55 1015.0
20260502183303 66 0 0.0 0.0 0.00 0.00 0.00 55 1014.9
20260502183203 66 0 0.0 0.0 0.00 0.00 0.00 55 1015.0
20260502183104 66 0 0.0 0.0 0.00 0.00 0.00 55 1014.9
20260502183004 66 0 0.0 0.0 0.00 0.00 0.00 54 1014.9
20260502182905 67 0 0.0 0.0 0.00 0.00 0.00 54 1015.0
20260502182804 67 0 0.0 0.0 0.00 0.00 0.00 54 1015.0
20260502182705 67 0 0.0 0.0 0.00 0.00 0.00 54 1014.9
20260502182603 67 0 0.0 0.0 0.00 0.00 0.00 54 1015.0
20260502182504 67 0 0.0 0.0 0.00 0.00 0.00 54 1014.9
20260502182404 67 0 0.0 0.0 0.00 0.00 0.00 54 1014.9
20260502182305 67 0 0.0 0.0 0.00 0.00 0.00 54 1015.0
20260502182203 67 0 0.0 0.0 0.00 0.00 0.00 54 1014.9
20260502182103 67 0 0.0 0.0 0.00 0.00 0.00 54 1014.9
20260502182004 67 0 0.0 0.0 0.00 0.00 0.00 54 1014.9
20260502181903 67 0 0.0 0.0 0.00 0.00 0.00 54 1014.9
20260502181803 67 0 0.0 0.0 0.00 0.00 0.00 54 1014.9
20260502181703 68 0 0.0 0.0 0.00 0.00 0.00 55 1014.8
20260502181604 68 0 0.0 0.0 0.00 0.00 0.00 55 1014.8
20260502181505 68 0 0.0 0.0 0.00 0.00 0.00 56 1014.9
20260502181403 68 0 0.0 0.0 0.00 0.00 0.00 56 1014.8
20260502181305 68 0 0.0 0.0 0.00 0.00 0.00 56 1014.9
20260502181203 68 0 0.0 0.0 0.00 0.00 0.00 55 1014.9
20260502181102 68 0 0.0 0.0 0.00 0.00 0.00 55 1014.8
20260502181002 68 0 0.0 0.0 0.00 0.00 0.00 55 1014.8
20260502180903 68 0 0.0 0.0 0.00 0.00 0.00 55 1014.8
20260502180804 68 0 0.0 0.0 0.00 0.00 0.00 55 1014.8
20260502180702 68 0 0.0 0.0 0.00 0.00 0.00 55 1014.8
20260502180601 68 0 0.0 0.0 0.00 0.00 0.00 55 1014.8
20260502180459 68 0 0.0 0.0 0.00 0.00 0.00 55 1014.8
20260502180359 68 0 0.0 0.0 0.00 0.00 0.00 55 1014.8
20260502180256 69 0 0.0 0.0 0.00 0.00 0.00 56 1014.8
20260502180155 69 0 0.0 0.0 0.00 0.00 0.00 56 1014.8
20260502170431 71 0 0.0 0.0 0.00 0.00 0.00 54 1015.2
20260502170332 71 0 0.0 0.0 0.00 0.00 0.00 54 1015.1
20260502170231 72 0 0.0 0.0 0.00 0.00 0.00 54 1015.2
20260502170132 72 0 0.0 0.0 0.00 0.00 0.00 54 1015.3
20260502164331 72 0 0.0 0.0 0.00 0.00 0.00 54 1015.5
20260502164232 72 0 0.0 0.0 0.00 0.00 0.00 53 1015.6
20260502164133 72 0 0.0 0.0 0.00 0.00 0.00 54 1015.5
20260502164031 72 0 0.0 0.0 0.00 0.00 0.00 54 1015.5
20260502163932 72 0 0.0 0.0 0.00 0.00 0.00 54 1015.6
20260502163831 72 0 0.0 0.0 0.00 0.00 0.00 54 1015.6
20260502163732 72 0 0.0 0.0 0.00 0.00 0.00 54 1015.6
20260502163631 72 0 0.0 0.0 0.00 0.00 0.00 54 1015.6
20260502163531 72 0 0.0 0.0 0.00 0.00 0.00 53 1015.7
20260502163432 72 0 0.0 0.0 0.00 0.00 0.00 54 1015.7
20260502163332 72 0 0.0 0.0 0.00 0.00 0.00 54 1015.8
20260502163231 72 0 0.0 0.0 0.00 0.00 0.00 54 1015.8
20260502163131 72 0 0.0 0.0 0.00 0.00 0.00 53 1015.8
20260502163032 72 0 0.0 0.0 0.00 0.00 0.00 54 1015.8
20260502162933 72 0 0.0 0.0 0.00 0.00 0.00 53 1015.8
20260502162830 72 0 0.0 0.0 0.00 0.00 0.00 53 1015.9
20260502162732 72 0 0.0 0.0 0.00 0.00 0.00 53 1015.8
20260502162631 72 0 0.0 0.0 0.00 0.00 0.00 54 1015.9
20260502162531 72 0 0.0 0.0 0.00 0.00 0.00 53 1015.9
20260502162430 72 0 0.0 0.0 0.00 0.00 0.00 53 1015.8
20260502162330 72 0 0.0 0.0 0.00 0.00 0.00 53 1015.7
20260502162231 72 0 0.0 0.0 0.00 0.00 0.00 54 1015.9
20260502162133 73 0 0.0 0.0 0.00 0.00 0.00 53 1015.8
20260502162031 73 0 0.0 0.0 0.00 0.00 0.00 53 1015.8
20260502161931 73 0 0.0 0.0 0.00 0.00 0.00 53 1015.9
20260502161829 73 0 0.0 0.0 0.00 0.00 0.00 52 1015.8
20260502161727 73 0 0.0 0.0 0.00 0.00 0.00 52 1015.9
20260502161626 73 0 0.0 0.0 0.00 0.00 0.00 52 1016.0
20260502161535 73 0 0.0 0.0 0.00 0.00 0.00 52 1015.9
20260502161423 73 0 0.0 0.0 0.00 0.00 0.00 52 1016.0
20260502161322 73 0 0.0 0.0 0.00 0.00 0.00 51 1015.9
20260502161222 73 0 0.0 0.0 0.00 0.00 0.00 50 1015.9
20260502161119 73 0 0.0 0.0 0.00 0.00 0.00 50 1016.0
20260502161017 73 0 0.0 0.0 0.00 0.00 0.00 52 1015.9
20260502160915 73 0 0.0 0.0 0.00 0.00 0.00 52 1015.9
20260502160814 73 0 0.0 0.0 0.00 0.00 0.00 51 1015.9
20260502160712 73 0 0.0 0.0 0.00 0.00 0.00 50 1016.0
20260502160611 73 0 0.0 0.0 0.00 0.00 0.00 52 1015.9
20260502160509 73 0 0.0 0.0 0.00 0.00 0.00 52 1016.0
20260502160409 73 0 0.0 0.0 0.00 0.00 0.00 52 1016.0
20260502160306 73 0 0.0 0.0 0.00 0.00 0.00 52 1016.0
20260502160250 73 0 0.0 0.0 0.00 0.00 0.00 52 1016.0
20260502160246 73 0 0.0 0.0 0.00 0.00 0.00 52 1016.0
20260502160242 73 0 0.0 0.0 0.00 0.00 0.00 52 1016.0
20260502160235 73 0 0.0 0.0 0.00 0.00 0.00 52 1016.0
20260502160229 73 0 0.0 0.0 0.00 0.00 0.00 52 1016.1
20260502152305 73 0 0.0 0.0 0.00 0.00 0.00 53 1016.2
20260502152203 73 0 0.0 0.0 0.00 0.00 0.00 51 1016.3
20260502152104 73 0 0.0 0.0 0.00 0.00 0.00 52 1016.3
20260502152004 73 0 0.0 0.0 0.00 0.00 0.00 51 1016.3
20260502151907 73 0 0.0 0.0 0.00 0.00 0.00 51 1016.3
20260502151803 73 0 0.0 0.0 0.00 0.00 0.00 53 1016.3
20260502151703 73 0 0.0 0.0 0.00 0.00 0.00 52 1016.3
20260502151604 73 0 0.0 0.0 0.00 0.00 0.00 52 1016.4
20260502151504 73 0 0.0 0.0 0.00 0.00 0.00 53 1016.4
20260502151403 73 0 0.0 0.0 0.00 0.00 0.00 52 1016.4
20260502151304 73 0 0.0 0.0 0.00 0.00 0.00 52 1016.4
20260502151204 73 0 0.0 0.0 0.00 0.00 0.00 53 1016.4
20260502151104 73 0 0.0 0.0 0.00 0.00 0.00 52 1016.4
20260502151003 73 0 0.0 0.0 0.00 0.00 0.00 51 1016.4
20260502150905 73 0 0.0 0.0 0.00 0.00 0.00 51 1016.4
20260502150804 73 0 0.0 0.0 0.00 0.00 0.00 53 1016.5
20260502150703 73 0 0.0 0.0 0.00 0.00 0.00 52 1016.5
20260502150605 73 0 0.0 0.0 0.00 0.00 0.00 53 1016.4
20260502150505 73 0 0.0 0.0 0.00 0.00 0.00 52 1016.4
20260502150403 73 0 0.0 0.0 0.00 0.00 0.00 51 1016.4
20260502150303 73 0 0.0 0.0 0.00 0.00 0.00 51 1016.5
20260502150204 73 0 0.0 0.0 0.00 0.00 0.00 51 1016.3
20260502150105 73 0 0.0 0.0 0.00 0.00 0.00 51 1016.5
20260502130658 71 0 0.0 0.0 0.00 0.00 0.00 61 1017.6
20260502130559 71 0 0.0 0.0 0.00 0.00 0.00 61 1017.6
20260502130455 71 0 0.0 0.0 0.00 0.00 0.00 61 1017.7
20260502130353 71 0 0.0 0.0 0.00 0.00 0.00 61 1017.7
20260502130307 71 0 0.0 0.0 0.00 0.00 0.00 60 1017.7
20260502130303 71 0 0.0 0.0 0.00 0.00 0.00 61 1017.7
20260502130119 71 0 0.0 0.0 0.00 0.00 0.00 60 1017.7
20260502123736 72 0 0.0 0.0 0.00 0.00 0.00 60 1017.9
20260502123637 72 0 0.0 0.0 0.00 0.00 0.00 59 1017.9
20260502123537 72 0 0.0 0.0 0.00 0.00 0.00 58 1017.9
20260502123436 72 0 0.0 0.0 0.00 0.00 0.00 58 1017.9
20260502123336 72 0 0.0 0.0 0.00 0.00 0.00 59 1017.9
20260502123236 72 0 0.0 0.0 0.00 0.00 0.00 59 1017.9
20260502123139 72 0 0.0 0.0 0.00 0.00 0.00 60 1018.0
20260502123036 72 0 0.0 0.0 0.00 0.00 0.00 59 1018.0
20260502122936 72 0 0.0 0.0 0.00 0.00 0.00 59 1018.0
20260502122835 72 0 0.0 0.0 0.00 0.00 0.00 59 1018.0
20260502122736 72 0 0.0 0.0 0.00 0.00 0.00 59 1018.1
20260502122637 72 0 0.0 0.0 0.00 0.00 0.00 59 1018.1
20260502122537 72 0 0.0 0.0 0.00 0.00 0.00 60 1018.1
20260502122436 72 0 0.0 0.0 0.00 0.00 0.00 61 1018.1
20260502122337 71 0 0.0 0.0 0.00 0.00 0.00 60 1018.1
20260502122237 72 0 0.0 0.0 0.00 0.00 0.00 59 1018.2
20260502122137 72 0 0.0 0.0 0.00 0.00 0.00 59 1018.2
20260502122038 72 0 0.0 0.0 0.00 0.00 0.00 59 1018.1
20260502121936 72 0 0.0 0.0 0.00 0.00 0.00 59 1018.1
20260502121835 72 0 0.0 0.0 0.00 0.00 0.00 60 1018.1
20260502121735 72 0 0.0 0.0 0.00 0.00 0.00 59 1018.1
20260502121638 72 0 0.0 0.0 0.00 0.00 0.00 60 1018.1
20260502121537 72 0 0.0 0.0 0.00 0.00 0.00 60 1018.2
20260502121436 72 0 0.0 0.0 0.00 0.00 0.00 60 1018.2
20260502121337 72 0 0.0 0.0 0.00 0.00 0.00 61 1018.2
20260502121235 72 0 0.0 0.0 0.00 0.00 0.00 62 1018.1
20260502121137 71 0 0.0 0.0 0.00 0.00 0.00 62 1018.2
20260502121035 71 0 0.0 0.0 0.00 0.00 0.00 62 1018.2
20260502120935 71 0 0.0 0.0 0.00 0.00 0.00 62 1018.1
20260502120836 71 0 0.0 0.0 0.00 0.00 0.00 61 1018.1
20260502120736 71 0 0.0 0.0 0.00 0.00 0.00 61 1018.2
20260502120636 71 0 0.0 0.0 0.00 0.00 0.00 61 1018.1
20260502120536 71 0 0.0 0.0 0.00 0.00 0.00 61 1018.1
20260502120435 71 0 0.0 0.0 0.00 0.00 0.00 62 1018.1
20260502120336 71 0 0.0 0.0 0.00 0.00 0.00 62 1018.2
20260502120236 71 0 0.0 0.0 0.00 0.00 0.00 61 1018.1
20260502120138 71 0 0.0 0.0 0.00 0.00 0.00 61 1018.1
20260502115835 70 0 0.0 0.0 0.00 0.00 0.00 62 1018.2
20260502115735 70 0 0.0 0.0 0.00 0.00 0.00 62 1018.3
20260502115637 70 0 0.0 0.0 0.00 0.00 0.00 62 1018.2
20260502115536 70 0 0.0 0.0 0.00 0.00 0.00 61 1018.2
20260502115436 70 0 0.0 0.0 0.00 0.00 0.00 62 1018.2
20260502115336 70 0 0.0 0.0 0.00 0.00 0.00 62 1018.3
20260502115236 70 0 0.0 0.0 0.00 0.00 0.00 63 1018.3
20260502115136 70 0 0.0 0.0 0.00 0.00 0.00 62 1018.3
20260502115036 70 0 0.0 0.0 0.00 0.00 0.00 62 1018.3
20260502114936 70 0 0.0 0.0 0.00 0.00 0.00 62 1018.3
20260502114835 70 0 0.0 0.0 0.00 0.00 0.00 62 1018.2
20260502114735 70 0 0.0 0.0 0.00 0.00 0.00 62 1018.2
20260502114638 70 0 0.0 0.0 0.00 0.00 0.00 62 1018.3
20260502114535 70 0 0.0 0.0 0.00 0.00 0.00 62 1018.2
20260502114436 70 0 0.0 0.0 0.00 0.00 0.00 62 1018.3
20260502114337 70 0 0.0 0.0 0.00 0.00 0.00 62 1018.3
20260502114235 70 0 0.0 0.0 0.00 0.00 0.00 62 1018.3
20260502114136 70 0 0.0 0.0 0.00 0.00 0.00 61 1018.3
20260502114037 70 0 0.0 0.0 0.00 0.00 0.00 62 1018.2
20260502113935 70 0 0.0 0.0 0.00 0.00 0.00 61 1018.3
20260502113835 70 0 0.0 0.0 0.00 0.00 0.00 61 1018.3
20260502113735 70 0 0.0 0.0 0.00 0.00 0.00 63 1018.2
20260502113634 70 0 0.0 0.0 0.00 0.00 0.00 64 1018.4
20260502113532 70 0 0.0 0.0 0.00 0.00 0.00 64 1018.4
20260502113432 70 0 0.0 0.0 0.00 0.00 0.00 63 1018.4
20260502113332 69 0 0.0 0.0 0.00 0.00 0.00 63 1018.3
20260502113231 69 0 0.0 0.0 0.00 0.00 0.00 63 1018.4
20260502113132 69 0 0.0 0.0 0.00 0.00 0.00 64 1018.5
20260502113033 69 0 0.0 0.0 0.00 0.00 0.00 63 1018.4
20260502112935 69 0 0.0 0.0 0.00 0.00 0.00 63 1018.4
20260502112832 69 0 0.0 0.0 0.00 0.00 0.00 63 1018.4
20260502112731 69 0 0.0 0.0 0.00 0.00 0.00 63 1018.4
20260502112633 69 0 0.0 0.0 0.00 0.00 0.00 63 1018.4
20260502112531 69 0 0.0 0.0 0.00 0.00 0.00 63 1018.4
20260502112431 69 0 0.0 0.0 0.00 0.00 0.00 63 1018.5
20260502112331 69 0 0.0 0.0 0.00 0.00 0.00 63 1018.5
20260502112232 69 0 0.0 0.0 0.00 0.00 0.00 63 1018.5
20260502112129 69 0 0.0 0.0 0.00 0.00 0.00 63 1018.5
20260502112027 69 0 0.0 0.0 0.00 0.00 0.00 63 1018.5
20260502111926 69 0 0.0 0.0 0.00 0.00 0.00 63 1018.5
20260502111824 69 0 0.0 0.0 0.00 0.00 0.00 63 1018.5
20260502111723 69 0 0.0 0.0 0.00 0.00 0.00 63 1018.6
20260502111631 69 0 0.0 0.0 0.00 0.00 0.00 63 1018.5
20260502111520 69 0 0.0 0.0 0.00 0.00 0.00 63 1018.5
20260502111418 69 0 0.0 0.0 0.00 0.00 0.00 63 1018.6
20260502111318 69 0 0.0 0.0 0.00 0.00 0.00 63 1018.6
20260502111216 69 0 0.0 0.0 0.00 0.00 0.00 62 1018.5
20260502111112 69 0 0.0 0.0 0.00 0.00 0.00 62 1018.5
20260502111011 69 0 0.0 0.0 0.00 0.00 0.00 62 1018.6
20260502110908 69 0 0.0 0.0 0.00 0.00 0.00 63 1018.5
20260502110805 69 0 0.0 0.0 0.00 0.00 0.00 63 1018.5
20260502110704 69 0 0.0 0.0 0.00 0.00 0.00 63 1018.5
20260502110604 69 0 0.0 0.0 0.00 0.00 0.00 63 1018.6
20260502110503 69 0 0.0 0.0 0.00 0.00 0.00 63 1018.6
20260502110404 69 0 0.0 0.0 0.00 0.00 0.00 63 1018.5
20260502110305 69 0 0.0 0.0 0.00 0.00 0.00 62 1018.6
20260502110204 69 0 0.0 0.0 0.00 0.00 0.00 62 1018.6
20260502110103 69 0 0.0 0.0 0.00 0.00 0.00 62 1018.6
20260502110005 69 0 0.0 0.0 0.00 0.00 0.00 62 1018.6
20260502105903 69 0 0.0 0.0 0.00 0.00 0.00 62 1018.5
20260502105803 69 0 0.0 0.0 0.00 0.00 0.00 62 1018.5
20260502105703 69 0 0.0 0.0 0.00 0.00 0.00 63 1018.6
20260502105603 69 0 0.0 0.0 0.00 0.00 0.00 64 1018.6
20260502105504 69 0 0.0 0.0 0.00 0.00 0.00 63 1018.6
20260502105404 69 0 0.0 0.0 0.00 0.00 0.00 64 1018.6
20260502105306 69 0 0.0 0.0 0.00 0.00 0.00 63 1018.6
20260502105204 69 0 0.0 0.0 0.00 0.00 0.00 63 1018.6
20260502105113 69 0 0.0 0.0 0.00 0.00 0.00 63 1018.6
20260502105005 69 0 0.0 0.0 0.00 0.00 0.00 63 1018.5
20260502104904 69 0 0.0 0.0 0.00 0.00 0.00 63 1018.6
20260502104804 69 0 0.0 0.0 0.00 0.00 0.00 63 1018.6
20260502104703 69 0 0.0 0.0 0.00 0.00 0.00 62 1018.7
20260502104603 69 0 0.0 0.0 0.00 0.00 0.00 62 1018.6
20260502104505 69 0 0.0 0.0 0.00 0.00 0.00 62 1018.6
20260502104403 69 0 0.0 0.0 0.00 0.00 0.00 62 1018.7
20260502104304 70 0 0.0 0.0 0.00 0.00 0.00 62 1018.6
20260502104203 70 0 0.0 0.0 0.00 0.00 0.00 62 1018.6
20260502104103 70 0 0.0 0.0 0.00 0.00 0.00 62 1018.7
20260502104004 70 0 0.0 0.0 0.00 0.00 0.00 61 1018.7
20260502103906 70 0 0.0 0.0 0.00 0.00 0.00 62 1018.6
20260502103803 70 0 0.0 0.0 0.00 0.00 0.00 63 1018.6
20260502103703 70 0 0.0 0.0 0.00 0.00 0.00 62 1018.7
20260502103603 69 0 0.0 0.0 0.00 0.00 0.00 62 1018.7
20260502103504 69 0 0.0 0.0 0.00 0.00 0.00 63 1018.7
20260502103403 69 0 0.0 0.0 0.00 0.00 0.00 64 1018.6
20260502103304 69 0 0.0 0.0 0.00 0.00 0.00 63 1018.7
20260502103205 69 0 0.0 0.0 0.00 0.00 0.00 64 1018.7
20260502103105 69 0 0.0 0.0 0.00 0.00 0.00 63 1018.8
20260502103003 69 0 0.0 0.0 0.00 0.00 0.00 64 1018.7
20260502102903 69 0 0.0 0.0 0.00 0.00 0.00 64 1018.7
20260502102804 69 0 0.0 0.0 0.00 0.00 0.00 64 1018.7
20260502102704 69 0 0.0 0.0 0.00 0.00 0.00 64 1018.6
20260502102604 69 0 0.0 0.0 0.00 0.00 0.00 64 1018.6
20260502102504 69 0 0.0 0.0 0.00 0.00 0.00 64 1018.7
20260502102405 68 0 0.0 0.0 0.00 0.00 0.00 64 1018.7
20260502102306 68 0 0.0 0.0 0.00 0.00 0.00 65 1018.7
20260502102203 68 0 0.0 0.0 0.00 0.00 0.00 64 1018.7
20260502102102 68 0 0.0 0.0 0.00 0.00 0.00 64 1018.8
20260502102002 68 0 0.0 0.0 0.00 0.00 0.00 64 1018.7
20260502101904 68 0 0.0 0.0 0.00 0.00 0.00 64 1018.8
20260502101801 68 0 0.0 0.0 0.00 0.00 0.00 64 1018.8
20260502101700 68 0 0.0 0.0 0.00 0.00 0.00 63 1018.8
20260502101558 68 0 0.0 0.0 0.00 0.00 0.00 63 1018.8
20260502101456 68 0 0.0 0.0 0.00 0.00 0.00 64 1018.7
20260502101356 68 0 0.0 0.0 0.00 0.00 0.00 64 1018.8
20260502101254 68 0 0.0 0.0 0.00 0.00 0.00 64 1018.9
20260502101153 68 0 0.0 0.0 0.00 0.00 0.00 64 1018.8
20260502101051 68 0 0.0 0.0 0.00 0.00 0.00 64 1018.8
20260502100951 68 0 0.0 0.0 0.00 0.00 0.00 63 1018.9
20260502100847 68 0 0.0 0.0 0.00 0.00 0.00 64 1018.8
20260502100746 68 0 0.0 0.0 0.00 0.00 0.00 64 1018.9
20260502100645 68 0 0.0 0.0 0.00 0.00 0.00 64 1018.9
20260502100540 68 0 0.0 0.0 0.00 0.00 0.00 64 1018.9
20260502100439 68 0 0.0 0.0 0.00 0.00 0.00 64 1019.0
20260502100338 68 0 0.0 0.0 0.00 0.00 0.00 64 1019.0
20260502100236 68 0 0.0 0.0 0.00 0.00 0.00 64 1018.9
20260502100135 68 0 0.0 0.0 0.00 0.00 0.00 64 1018.9
20260502091519 66 0 0.0 0.0 0.00 0.00 0.00 65 1019.1
20260502091417 66 0 0.0 0.0 0.00 0.00 0.00 65 1019.2
20260502091317 66 0 0.0 0.0 0.00 0.00 0.00 65 1019.2
20260502091211 66 0 0.0 0.0 0.00 0.00 0.00 66 1019.1
20260502091110 65 0 0.0 0.0 0.00 0.00 0.00 66 1019.1
20260502091009 65 0 0.0 0.0 0.00 0.00 0.00 66 1019.1
20260502090904 65 0 0.0 0.0 0.00 0.00 0.00 66 1019.1
20260502090804 65 0 0.0 0.0 0.00 0.00 0.00 66 1019.1
20260502090703 65 0 0.0 0.0 0.00 0.00 0.00 67 1019.0
20260502090603 65 0 0.0 0.0 0.00 0.00 0.00 67 1019.0
20260502090506 64 0 0.0 0.0 0.00 0.00 0.00 67 1019.0
20260502090403 64 0 0.0 0.0 0.00 0.00 0.00 67 1019.0
20260502090304 64 0 0.0 0.0 0.00 0.00 0.00 67 1019.0
20260502090204 64 0 0.0 0.0 0.00 0.00 0.00 68 1019.1
20260502090103 64 0 0.0 0.0 0.00 0.00 0.00 68 1019.1
20260502071503 55 0 0.0 0.0 0.00 0.00 0.00 67 1019.1
20260502071403 55 0 0.0 0.0 0.00 0.00 0.00 68 1019.1
20260502071304 55 0 0.0 0.0 0.00 0.00 0.00 68 1019.1
20260502071204 55 0 0.0 0.0 0.00 0.00 0.00 69 1019.1
20260502071104 55 0 0.0 0.0 0.00 0.00 0.00 69 1019.2
20260502071004 55 0 0.0 0.0 0.00 0.00 0.00 69 1019.1
20260502070903 55 0 0.0 0.0 0.00 0.00 0.00 69 1019.2
20260502070803 55 0 0.0 0.0 0.00 0.00 0.00 69 1019.2
20260502070705 55 0 0.0 0.0 0.00 0.00 0.00 69 1019.1
20260502070603 55 0 0.0 0.0 0.00 0.00 0.00 69 1019.0
20260502070503 55 0 0.0 0.0 0.00 0.00 0.00 69 1019.0
20260502070402 55 0 0.0 0.0 0.00 0.00 0.00 69 1019.0
20260502070303 55 0 0.0 0.0 0.00 0.00 0.00 69 1019.0
20260502070203 55 0 0.0 0.0 0.00 0.00 0.00 70 1019.0
20260502065959 55 0 0.0 0.0 0.00 0.00 0.00 70 1019.0
20260502065859 55 0 0.0 0.0 0.00 0.00 0.00 70 1019.0
20260502065757 55 0 0.0 0.0 0.00 0.00 0.00 70 1019.0
20260502065655 55 0 0.0 0.0 0.00 0.00 0.00 70 1019.0
20260502065553 54 0 0.0 0.0 0.00 0.00 0.00 70 1019.1
20260502065449 54 0 0.0 0.0 0.00 0.00 0.00 70 1019.1
20260502065348 54 0 0.0 0.0 0.00 0.00 0.00 70 1019.1
20260502065249 54 0 0.0 0.0 0.00 0.00 0.00 70 1019.0
20260502065145 54 0 0.0 0.0 0.00 0.00 0.00 70 1019.1
20260502065044 54 0 0.0 0.0 0.00 0.00 0.00 71 1019.1
20260502064942 54 0 0.0 0.0 0.00 0.00 0.00 71 1019.1
20260502064842 54 0 0.0 0.0 0.00 0.00 0.00 71 1019.1
20260502064739 54 0 0.0 0.0 0.00 0.00 0.00 71 1019.0
20260502064638 54 0 0.0 0.0 0.00 0.00 0.00 71 1019.1
20260502064536 54 0 0.0 0.0 0.00 0.00 0.00 72 1019.0
20260502064435 53 0 0.0 0.0 0.00 0.00 0.00 72 1019.0
20260502064334 53 0 0.0 0.0 0.00 0.00 0.00 72 1019.0
20260502064235 53 0 0.0 0.0 0.00 0.00 0.00 73 1019.0
20260502064133 53 0 0.0 0.0 0.00 0.00 0.00 73 1019.0
20260502064033 53 0 0.0 0.0 0.00 0.00 0.00 73 1019.0
20260502063932 53 0 0.0 0.0 0.00 0.00 0.00 73 1019.1
20260502063832 53 0 0.0 0.0 0.00 0.00 0.00 73 1019.1
20260502063734 53 0 0.0 0.0 0.00 0.00 0.00 74 1019.1
20260502063632 53 0 0.0 0.0 0.00 0.00 0.00 74 1019.2
20260502063532 53 0 0.0 0.0 0.00 0.00 0.00 74 1019.2
20260502063432 53 0 0.0 0.0 0.00 0.00 0.00 74 1019.2
20260502063334 53 0 0.0 0.0 0.00 0.00 0.00 74 1019.2
20260502063232 53 0 0.0 0.0 0.00 0.00 0.00 74 1019.1
20260502063131 52 0 0.0 0.0 0.00 0.00 0.00 74 1019.2
20260502063032 52 0 0.0 0.0 0.00 0.00 0.00 74 1019.1
20260502062933 52 0 0.0 0.0 0.00 0.00 0.00 75 1019.2
20260502062831 52 0 0.0 0.0 0.00 0.00 0.00 75 1019.2
20260502062731 52 0 0.0 0.0 0.00 0.00 0.00 74 1019.2
20260502062631 52 0 0.0 0.0 0.00 0.00 0.00 74 1019.3
20260502062533 52 0 0.0 0.0 0.00 0.00 0.00 74 1019.3
20260502062431 52 0 0.0 0.0 0.00 0.00 0.00 74 1019.2
20260502062332 52 0 0.0 0.0 0.00 0.00 0.00 74 1019.3
20260502062232 52 0 0.0 0.0 0.00 0.00 0.00 74 1019.2
20260502062131 52 0 0.0 0.0 0.00 0.00 0.00 74 1019.1
20260502062031 52 0 0.0 0.0 0.00 0.00 0.00 74 1019.1
20260502061933 51 0 0.0 0.0 0.00 0.00 0.00 74 1019.2
20260502061832 51 0 0.0 0.0 0.00 0.00 0.00 74 1019.1
20260502061731 51 0 0.0 0.0 0.00 0.00 0.00 74 1019.1
20260502061630 51 0 0.0 0.0 0.00 0.00 0.00 74 1019.1
20260502061530 51 0 0.0 0.0 0.00 0.00 0.00 74 1019.1
20260502061432 51 0 0.0 0.0 0.00 0.00 0.00 74 1019.0
20260502061331 51 0 0.0 0.0 0.00 0.00 0.00 74 1019.1
20260502061231 51 0 0.0 0.0 0.00 0.00 0.00 74 1019.1
20260502061131 51 0 0.0 0.0 0.00 0.00 0.00 74 1019.1
20260502061031 51 0 0.0 0.0 0.00 0.00 0.00 75 1019.0
20260502060933 51 0 0.0 0.0 0.00 0.00 0.00 74 1019.1
20260502060832 51 0 0.0 0.0 0.00 0.00 0.00 75 1019.1
20260502060731 51 0 0.0 0.0 0.00 0.00 0.00 75 1019.1
20260502060631 50 0 0.0 0.0 0.00 0.00 0.00 75 1019.1
20260502060534 50 0 0.0 0.0 0.00 0.00 0.00 75 1019.2
20260502060431 50 0 0.0 0.0 0.00 0.00 0.00 75 1019.0
20260502060331 50 0 0.0 0.0 0.00 0.00 0.00 75 1019.1
20260502060231 50 0 0.0 0.0 0.00 0.00 0.00 75 1019.0
20260502060130 50 0 0.0 0.0 0.00 0.00 0.00 75 1019.0
20260502060033 50 0 0.0 0.0 0.00 0.00 0.00 75 1019.0
20260502055931 50 0 0.0 0.0 0.00 0.00 0.00 75 1019.0
20260502055833 50 0 0.0 0.0 0.00 0.00 0.00 75 1019.1
20260502055733 50 0 0.0 0.0 0.00 0.00 0.00 75 1019.1
20260502055631 50 0 0.0 0.0 0.00 0.00 0.00 75 1019.1
20260502055531 49 0 0.0 0.0 0.00 0.00 0.00 75 1019.1
20260502055434 49 0 0.0 0.0 0.00 0.00 0.00 75 1019.2
20260502055331 49 0 0.0 0.0 0.00 0.00 0.00 75 1019.2
20260502055231 49 0 0.0 0.0 0.00 0.00 0.00 75 1019.3
20260502055134 49 0 0.0 0.0 0.00 0.00 0.00 75 1019.2
20260502055030 49 0 0.0 0.0 0.00 0.00 0.00 76 1019.2
20260502054931 49 0 0.0 0.0 0.00 0.00 0.00 76 1019.2
20260502054831 49 0 0.0 0.0 0.00 0.00 0.00 76 1019.2
20260502054733 49 0 0.0 0.0 0.00 0.00 0.00 76 1019.2
20260502054632 49 0 0.0 0.0 0.00 0.00 0.00 76 1019.2
20260502054532 49 0 0.0 0.0 0.00 0.00 0.00 76 1019.1
20260502054431 48 0 0.0 0.0 0.00 0.00 0.00 76 1019.1
20260502054331 48 0 0.0 0.0 0.00 0.00 0.00 76 1019.1
20260502054231 48 0 0.0 0.0 0.00 0.00 0.00 76 1019.2
20260502054132 48 0 0.0 0.0 0.00 0.00 0.00 76 1019.2
20260502054030 48 0 0.0 0.0 0.00 0.00 0.00 76 1019.2
20260502053931 48 0 0.0 0.0 0.00 0.00 0.00 76 1019.2
20260502053831 48 0 0.0 0.0 0.00 0.00 0.00 76 1019.2
20260502053733 48 0 0.0 0.0 0.00 0.00 0.00 76 1019.1
20260502053632 48 0 0.0 0.0 0.00 0.00 0.00 76 1019.1
20260502053532 48 0 0.0 0.0 0.00 0.00 0.00 76 1019.1
20260502053432 48 0 0.0 0.0 0.00 0.00 0.00 76 1019.1
20260502053332 48 0 0.0 0.0 0.00 0.00 0.00 76 1019.2
20260502053231 48 0 0.0 0.0 0.00 0.00 0.00 75 1019.1
20260502053133 48 0 0.0 0.0 0.00 0.00 0.00 75 1019.1
20260502053031 48 0 0.0 0.0 0.00 0.00 0.00 75 1019.0
20260502052931 48 0 0.0 0.0 0.00 0.00 0.00 75 1018.9
20260502052833 48 0 0.0 0.0 0.00 0.00 0.00 75 1018.9
20260502052732 48 0 0.0 0.0 0.00 0.00 0.00 75 1018.9
20260502052631 48 0 0.0 0.0 0.00 0.00 0.00 75 1018.9
20260502052532 48 0 0.0 0.0 0.00 0.00 0.00 75 1018.9
20260502052433 48 0 0.0 0.0 0.00 0.00 0.00 75 1018.8
20260502052331 48 0 0.0 0.0 0.00 0.00 0.00 75 1018.7
20260502052233 48 0 0.0 0.0 0.00 0.00 0.00 75 1018.8
20260502052131 48 0 0.0 0.0 0.00 0.00 0.00 75 1018.8
20260502052030 48 0 0.0 0.0 0.00 0.00 0.00 75 1018.9
20260502051932 48 0 0.0 0.0 0.00 0.00 0.00 75 1018.8
20260502051831 48 0 0.0 0.0 0.00 0.00 0.00 75 1018.7
20260502051731 48 0 0.0 0.0 0.00 0.00 0.00 75 1018.7
20260502051632 47 0 0.0 0.0 0.00 0.00 0.00 75 1018.7
20260502051531 47 0 0.0 0.0 0.00 0.00 0.00 75 1018.8
20260502051432 47 0 0.0 0.0 0.00 0.00 0.00 75 1018.8
20260502051331 47 0 0.0 0.0 0.00 0.00 0.00 75 1018.8
20260502051232 47 0 0.0 0.0 0.00 0.00 0.00 75 1018.7
20260502051132 47 0 0.0 0.0 0.00 0.00 0.00 75 1018.8
20260502051031 47 0 0.0 0.0 0.00 0.00 0.00 75 1018.8
20260502050933 47 0 0.0 0.0 0.00 0.00 0.00 75 1018.7
20260502050832 47 0 0.0 0.0 0.00 0.00 0.00 75 1018.7
20260502050731 47 0 0.0 0.0 0.00 0.00 0.00 75 1018.8
20260502050633 47 0 0.0 0.0 0.00 0.00 0.00 75 1018.7
20260502050532 47 0 0.0 0.0 0.00 0.00 0.00 75 1018.8
20260502050433 47 0 0.0 0.0 0.00 0.00 0.00 75 1018.8
20260502050331 47 0 0.0 0.0 0.00 0.00 0.00 75 1018.9
20260502050230 47 0 0.0 0.0 0.00 0.00 0.00 75 1018.9
20260502050128 47 0 0.0 0.0 0.00 0.00 0.00 75 1018.9
20260502050037 47 0 0.0 0.0 0.00 0.00 0.00 75 1018.9
20260502045926 47 0 0.0 0.0 0.00 0.00 0.00 75 1018.8
20260502045826 47 0 0.0 0.0 0.00 0.00 0.00 75 1018.8
20260502045728 47 0 0.0 0.0 0.00 0.00 0.00 75 1018.8
20260502045628 47 0 0.0 0.0 0.00 0.00 0.00 75 1018.8
20260502045527 47 0 0.0 0.0 0.00 0.00 0.00 75 1018.9
20260502045426 47 0 0.0 0.0 0.00 0.00 0.00 75 1018.9
20260502045326 47 0 0.0 0.0 0.00 0.00 0.00 75 1018.9
20260502045228 47 0 0.0 0.0 0.00 0.00 0.00 75 1018.9
20260502045128 47 0 0.0 0.0 0.00 0.00 0.00 75 1018.9
20260502045031 47 0 0.0 0.0 0.00 0.00 0.00 75 1018.9
20260502044926 47 0 0.0 0.0 0.00 0.00 0.00 75 1019.0
20260502044826 47 0 0.0 0.0 0.00 0.00 0.00 75 1018.9
20260502044728 47 0 0.0 0.0 0.00 0.00 0.00 75 1018.9
20260502044628 47 0 0.0 0.0 0.00 0.00 0.00 75 1018.9
20260502044526 47 0 0.0 0.0 0.00 0.00 0.00 75 1018.9
20260502044426 47 0 0.0 0.0 0.00 0.00 0.00 75 1018.9
20260502044328 47 0 0.0 0.0 0.00 0.00 0.00 75 1018.9
20260502044226 47 0 0.0 0.0 0.00 0.00 0.00 75 1018.9
20260502044127 47 0 0.0 0.0 0.00 0.00 0.00 75 1018.8
20260502044029 47 0 0.0 0.0 0.00 0.00 0.00 75 1018.9
20260502043926 47 0 0.0 0.0 0.00 0.00 0.00 75 1018.9
20260502043826 47 0 0.0 0.0 0.00 0.00 0.00 75 1018.9
20260502043726 47 0 0.0 0.0 0.00 0.00 0.00 75 1018.9
20260502043628 47 0 0.0 0.0 0.00 0.00 0.00 75 1018.8
20260502043528 47 0 0.0 0.0 0.00 0.00 0.00 75 1018.9
20260502043426 47 0 0.0 0.0 0.00 0.00 0.00 75 1018.9
20260502043326 47 0 0.0 0.0 0.00 0.00 0.00 75 1019.0
20260502043226 47 0 0.0 0.0 0.00 0.00 0.00 75 1019.0
20260502043129 47 0 0.0 0.0 0.00 0.00 0.00 75 1018.9
20260502043027 47 0 0.0 0.0 0.00 0.00 0.00 75 1019.0
20260502042927 47 0 0.0 0.0 0.00 0.00 0.00 76 1019.0
20260502042826 46 0 0.0 0.0 0.00 0.00 0.00 76 1019.0
20260502042726 46 0 0.0 0.0 0.00 0.00 0.00 76 1019.0
20260502042627 46 0 0.0 0.0 0.00 0.00 0.00 76 1019.0
20260502042526 46 0 0.0 0.0 0.00 0.00 0.00 76 1019.0
20260502042426 46 0 0.0 0.0 0.00 0.00 0.00 76 1019.0
20260502042325 46 0 0.0 0.0 0.00 0.00 0.00 76 1018.9
20260502042228 46 0 0.0 0.0 0.00 0.00 0.00 76 1018.9
20260502042127 46 0 0.0 0.0 0.00 0.00 0.00 76 1018.9
20260502042026 46 0 0.0 0.0 0.00 0.00 0.00 76 1019.0
20260502041925 46 0 0.0 0.0 0.00 0.00 0.00 76 1019.0
20260502041827 46 0 0.0 0.0 0.00 0.00 0.00 76 1019.0
20260502041725 46 0 0.0 0.0 0.00 0.00 0.00 76 1018.9
20260502041629 46 0 0.0 0.0 0.00 0.00 0.00 76 1019.0
20260502041526 46 0 0.0 0.0 0.00 0.00 0.00 76 1018.9
20260502041427 46 0 0.0 0.0 0.00 0.00 0.00 76 1018.8
20260502041327 46 0 0.0 0.0 0.00 0.00 0.00 76 1018.9
20260502041228 46 0 0.0 0.0 0.00 0.00 0.00 76 1018.9
20260502041127 46 0 0.0 0.0 0.00 0.00 0.00 76 1018.8
20260502041031 46 0 0.0 0.0 0.00 0.00 0.00 76 1018.7
20260502040926 46 0 0.0 0.0 0.00 0.00 0.00 76 1018.8
20260502040826 46 0 0.0 0.0 0.00 0.00 0.00 76 1018.9
20260502040736 46 0 0.0 0.0 0.00 0.00 0.00 76 1018.9
20260502040623 46 0 0.0 0.0 0.00 0.00 0.00 76 1018.8
20260502040523 46 0 0.0 0.0 0.00 0.00 0.00 76 1018.8
20260502040422 46 0 0.0 0.0 0.00 0.00 0.00 76 1018.8
20260502040321 46 0 0.0 0.0 0.00 0.00 0.00 76 1018.8
20260502040212 46 0 0.0 0.0 0.00 0.00 0.00 76 1018.8
20260502040111 46 0 0.0 0.0 0.00 0.00 0.00 76 1018.8
20260502040009 46 0 0.0 0.0 0.00 0.00 0.00 76 1018.8
20260502035909 46 0 0.0 0.0 0.00 0.00 0.00 76 1018.9
20260502035808 46 0 0.0 0.0 0.00 0.00 0.00 76 1018.9
20260502035706 46 0 0.0 0.0 0.00 0.00 0.00 76 1018.9
20260502035604 46 0 0.0 0.0 0.00 0.00 0.00 76 1018.9
20260502035505 46 0 0.0 0.0 0.00 0.00 0.00 76 1018.9
20260502035404 46 0 0.0 0.0 0.00 0.00 0.00 76 1018.9
20260502035306 46 0 0.0 0.0 0.00 0.00 0.00 76 1018.9
20260502035204 46 0 0.0 0.0 0.00 0.00 0.00 76 1018.9
20260502035104 46 0 0.0 0.0 0.00 0.00 0.00 76 1018.9
20260502035004 46 0 0.0 0.0 0.00 0.00 0.00 76 1018.8
20260502034903 46 0 0.0 0.0 0.00 0.00 0.00 76 1018.9
20260502034803 46 0 0.0 0.0 0.00 0.00 0.00 76 1018.9
20260502034704 46 0 0.0 0.0 0.00 0.00 0.00 76 1019.0
20260502034604 46 0 0.0 0.0 0.00 0.00 0.00 76 1018.9
20260502034503 46 0 0.0 0.0 0.00 0.00 0.00 75 1019.0
20260502034405 46 0 0.0 0.0 0.00 0.00 0.00 75 1019.0
20260502034305 46 0 0.0 0.0 0.00 0.00 0.00 75 1019.0
20260502034203 46 0 0.0 0.0 0.00 0.00 0.00 75 1019.0
20260502034105 46 0 0.0 0.0 0.00 0.00 0.00 75 1019.0
20260502034005 46 0 0.0 0.0 0.00 0.00 0.00 75 1019.0
20260502033903 46 0 0.0 0.0 0.00 0.00 0.00 75 1019.2
20260502033803 46 0 0.0 0.0 0.00 0.00 0.00 75 1019.1
20260502033703 46 0 0.0 0.0 0.00 0.00 0.00 75 1019.1
20260502033605 46 0 0.0 0.0 0.00 0.00 0.00 75 1019.1
20260502033504 46 0 0.0 0.0 0.00 0.00 0.00 75 1019.1
20260502033403 46 0 0.0 0.0 0.00 0.00 0.00 75 1019.1
20260502033303 46 0 0.0 0.0 0.00 0.00 0.00 75 1019.1
20260502033203 46 0 0.0 0.0 0.00 0.00 0.00 75 1019.1
20260502033101 46 0 0.0 0.0 0.00 0.00 0.00 75 1019.1
20260502033001 46 0 0.0 0.0 0.00 0.00 0.00 75 1019.1
20260502032858 46 0 0.0 0.0 0.00 0.00 0.00 75 1019.1
20260502032759 46 0 0.0 0.0 0.00 0.00 0.00 75 1019.1
20260502032656 46 0 0.0 0.0 0.00 0.00 0.00 74 1019.1
20260502032554 46 0 0.0 0.0 0.00 0.00 0.00 74 1019.1
20260502032453 46 0 0.0 0.0 0.00 0.00 0.00 74 1019.1
20260502032354 46 0 0.0 0.0 0.00 0.00 0.00 74 1019.1
20260502032250 46 0 0.0 0.0 0.00 0.00 0.00 74 1019.1
20260502032148 46 0 0.0 0.0 0.00 0.00 0.00 74 1019.1
20260502032047 46 0 0.0 0.0 0.00 0.00 0.00 74 1019.1
20260502031946 46 0 0.0 0.0 0.00 0.00 0.00 74 1019.2
20260502031843 46 0 0.0 0.0 0.00 0.00 0.00 74 1019.1
20260502031741 46 0 0.0 0.0 0.00 0.00 0.00 74 1019.1
20260502031642 46 0 0.0 0.0 0.00 0.00 0.00 75 1019.2
20260502031539 46 0 0.0 0.0 0.00 0.00 0.00 75 1019.2
20260502031437 46 0 0.0 0.0 0.00 0.00 0.00 75 1019.2
20260502031333 46 0 0.0 0.0 0.00 0.00 0.00 75 1019.2
20260502031233 46 0 0.0 0.0 0.00 0.00 0.00 75 1019.1
20260502031133 46 0 0.0 0.0 0.00 0.00 0.00 74 1019.2
20260502031032 46 0 0.0 0.0 0.00 0.00 0.00 74 1019.2
20260502030932 46 0 0.0 0.0 0.00 0.00 0.00 74 1019.2
20260502030832 46 0 0.0 0.0 0.00 0.00 0.00 75 1019.3
20260502030733 46 0 0.0 0.0 0.00 0.00 0.00 75 1019.3
20260502030634 46 0 0.0 0.0 0.00 0.00 0.00 75 1019.3
20260502030532 46 0 0.0 0.0 0.00 0.00 0.00 75 1019.4
20260502030434 46 0 0.0 0.0 0.00 0.00 0.00 74 1019.3
20260502030332 46 0 0.0 0.0 0.00 0.00 0.00 75 1019.3
20260502030232 46 0 0.0 0.0 0.00 0.00 0.00 74 1019.4
20260502030132 46 0 0.0 0.0 0.00 0.00 0.00 74 1019.4
20260502030033 46 0 0.0 0.0 0.00 0.00 0.00 74 1019.4
20260502025932 46 0 0.0 0.0 0.00 0.00 0.00 74 1019.4
20260502025834 46 0 0.0 0.0 0.00 0.00 0.00 75 1019.4
20260502025732 46 0 0.0 0.0 0.00 0.00 0.00 74 1019.4
20260502025631 46 0 0.0 0.0 0.00 0.00 0.00 74 1019.4
20260502025529 47 0 0.0 0.0 0.00 0.00 0.00 74 1019.4
20260502025428 47 0 0.0 0.0 0.00 0.00 0.00 74 1019.4
20260502025328 47 0 0.0 0.0 0.00 0.00 0.00 74 1019.3
20260502025226 47 0 0.0 0.0 0.00 0.00 0.00 74 1019.4
20260502025125 47 0 0.0 0.0 0.00 0.00 0.00 74 1019.3
20260502025029 47 0 0.0 0.0 0.00 0.00 0.00 74 1019.4
20260502024924 47 0 0.0 0.0 0.00 0.00 0.00 74 1019.4
20260502024824 47 0 0.0 0.0 0.00 0.00 0.00 74 1019.5
20260502024723 47 0 0.0 0.0 0.00 0.00 0.00 74 1019.4
20260502024626 47 0 0.0 0.0 0.00 0.00 0.00 74 1019.4
20260502024524 47 0 0.0 0.0 0.00 0.00 0.00 74 1019.4
20260502024423 47 0 0.0 0.0 0.00 0.00 0.00 74 1019.4
20260502024323 47 0 0.0 0.0 0.00 0.00 0.00 74 1019.4
20260502024223 47 0 0.0 0.0 0.00 0.00 0.00 74 1019.4
20260502024125 47 0 0.0 0.0 0.00 0.00 0.00 74 1019.4
20260502024027 47 0 0.0 0.0 0.00 0.00 0.00 74 1019.4
20260502023923 47 0 0.0 0.0 0.00 0.00 0.00 74 1019.4
20260502023825 47 0 0.0 0.0 0.00 0.00 0.00 74 1019.5
20260502023724 47 0 0.0 0.0 0.00 0.00 0.00 74 1019.5
20260502023622 47 0 0.0 0.0 0.00 0.00 0.00 74 1019.6
20260502023521 47 0 0.0 0.0 0.00 0.00 0.00 74 1019.6
20260502023417 47 0 0.0 0.0 0.00 0.00 0.00 74 1019.5
20260502023316 47 0 0.0 0.0 0.00 0.00 0.00 74 1019.5
20260502023215 47 0 0.0 0.0 0.00 0.00 0.00 74 1019.5
20260502023113 47 0 0.0 0.0 0.00 0.00 0.00 74 1019.5
20260502023012 47 0 0.0 0.0 0.00 0.00 0.00 74 1019.6
20260502022910 47 0 0.0 0.0 0.00 0.00 0.00 74 1019.6
20260502022810 47 0 0.0 0.0 0.00 0.00 0.00 74 1019.6
20260502022708 47 0 0.0 0.0 0.00 0.00 0.00 74 1019.6
20260502022606 47 0 0.0 0.0 0.00 0.00 0.00 74 1019.5
20260502022504 47 0 0.0 0.0 0.00 0.00 0.00 74 1019.6
20260502022403 47 0 0.0 0.0 0.00 0.00 0.00 74 1019.5
20260502022306 47 0 0.0 0.0 0.00 0.00 0.00 74 1019.5
20260502022203 47 0 0.0 0.0 0.00 0.00 0.00 74 1019.5
20260502022103 47 0 0.0 0.0 0.00 0.00 0.00 74 1019.4
20260502022002 47 0 0.0 0.0 0.00 0.00 0.00 74 1019.5
20260502021904 47 0 0.0 0.0 0.00 0.00 0.00 73 1019.6
20260502021802 47 0 0.0 0.0 0.00 0.00 0.00 74 1019.5
20260502021702 47 0 0.0 0.0 0.00 0.00 0.00 73 1019.5
20260502021604 47 0 0.0 0.0 0.00 0.00 0.00 73 1019.5
20260502021503 47 0 0.0 0.0 0.00 0.00 0.00 73 1019.5
20260502021403 47 0 0.0 0.0 0.00 0.00 0.00 73 1019.5
20260502021302 47 0 0.0 0.0 0.00 0.00 0.00 73 1019.5
20260502021202 47 0 0.0 0.0 0.00 0.00 0.00 73 1019.5
20260502021103 47 0 0.0 0.0 0.00 0.00 0.00 73 1019.5
20260502021003 47 0 0.0 0.0 0.00 0.00 0.00 73 1019.5
20260502020902 47 0 0.0 0.0 0.00 0.00 0.00 73 1019.5
20260502020802 47 0 0.0 0.0 0.00 0.00 0.00 73 1019.6
20260502020704 47 0 0.0 0.0 0.00 0.00 0.00 73 1019.5
20260502020612 47 0 0.0 0.0 0.00 0.00 0.00 73 1019.6
20260502020513 47 0 0.0 0.0 0.00 0.00 0.00 73 1019.5
20260502020404 47 0 0.0 0.0 0.00 0.00 0.00 73 1019.6
20260502020302 47 0 0.0 0.0 0.00 0.00 0.00 73 1019.5
20260502020213 47 0 0.0 0.0 0.00 0.00 0.00 73 1019.5
20260502020005 47 0 0.0 0.0 0.00 0.00 0.00 73 1019.5
20260502015902 47 0 0.0 0.0 0.00 0.00 0.00 73 1019.6
20260502015803 47 0 0.0 0.0 0.00 0.00 0.00 73 1019.6
20260502015703 47 0 0.0 0.0 0.00 0.00 0.00 73 1019.6
20260502015602 47 0 0.0 0.0 0.00 0.00 0.00 73 1019.6
20260502015504 47 0 0.0 0.0 0.00 0.00 0.00 73 1019.6
20260502015402 47 0 0.0 0.0 0.00 0.00 0.00 73 1019.6
20260502015305 47 0 0.0 0.0 0.00 0.00 0.00 73 1019.7
20260502015204 47 0 0.0 0.0 0.00 0.00 0.00 73 1019.7
20260502015105 47 0 0.0 0.0 0.00 0.00 0.00 73 1019.6
20260502015002 47 0 0.0 0.0 0.00 0.00 0.00 73 1019.7
20260502014902 47 0 0.0 0.0 0.00 0.00 0.00 72 1019.7
20260502014802 47 0 0.0 0.0 0.00 0.00 0.00 72 1019.7
20260502014702 47 0 0.0 0.0 0.00 0.00 0.00 72 1019.7
20260502014602 47 0 0.0 0.0 0.00 0.00 0.00 72 1019.7
20260502014502 47 0 0.0 0.0 0.00 0.00 0.00 72 1019.7
20260502014403 47 0 0.0 0.0 0.00 0.00 0.00 72 1019.6
20260502014303 47 0 0.0 0.0 0.00 0.00 0.00 72 1019.7
20260502014202 47 0 0.0 0.0 0.00 0.00 0.00 72 1019.6
20260502014103 47 0 0.0 0.0 0.00 0.00 0.00 72 1019.8
20260502014002 47 0 0.0 0.0 0.00 0.00 0.00 72 1019.8
20260502013902 47 0 0.0 0.0 0.00 0.00 0.00 72 1019.7
20260502013803 47 0 0.0 0.0 0.00 0.00 0.00 72 1019.7
20260502013702 47 0 0.0 0.0 0.00 0.00 0.00 72 1019.7
20260502013604 47 0 0.0 0.0 0.00 0.00 0.00 72 1019.7
20260502013504 47 0 0.0 0.0 0.00 0.00 0.00 72 1019.8
20260502013403 47 0 0.0 0.0 0.00 0.00 0.00 72 1019.7
20260502013302 47 0 0.0 0.0 0.00 0.00 0.00 72 1019.7
20260502013201 48 0 0.0 0.0 0.00 0.00 0.00 72 1019.8
20260502013103 48 0 0.0 0.0 0.00 0.00 0.00 72 1019.8
20260502013003 48 0 0.0 0.0 0.00 0.00 0.00 72 1019.7
20260502012902 48 0 0.0 0.0 0.00 0.00 0.00 72 1019.8
20260502012802 48 0 0.0 0.0 0.00 0.00 0.00 72 1019.8
20260502012702 48 0 0.0 0.0 0.00 0.00 0.00 72 1019.8
20260502012604 48 0 0.0 0.0 0.00 0.00 0.00 72 1019.8
20260502012502 48 0 0.0 0.0 0.00 0.00 0.00 72 1019.7
20260502012404 48 0 0.0 0.0 0.00 0.00 0.00 72 1019.7
20260502012306 48 0 0.0 0.0 0.00 0.00 0.00 72 1019.8
20260502012203 48 0 0.0 0.0 0.00 0.00 0.00 72 1019.9
20260502012100 48 0 0.0 0.0 0.00 0.00 0.00 72 1019.8
20260502011958 48 0 0.0 0.0 0.00 0.00 0.00 72 1019.8
20260502011857 48 0 0.0 0.0 0.00 0.00 0.00 72 1019.8
20260502011756 48 0 0.0 0.0 0.00 0.00 0.00 71 1019.9
20260502011654 48 0 0.0 0.0 0.00 0.00 0.00 71 1019.9
20260502011550 48 0 0.0 0.0 0.00 0.00 0.00 71 1019.9
20260502011449 48 0 0.0 0.0 0.00 0.00 0.00 71 1019.9
20260502011347 48 0 0.0 0.0 0.00 0.00 0.00 71 1019.9
20260502011249 48 0 0.0 0.0 0.00 0.00 0.00 71 1019.9
20260502011144 48 0 0.0 0.0 0.00 0.00 0.00 71 1019.9
20260502011040 48 0 0.0 0.0 0.00 0.00 0.00 71 1019.9
20260502010940 48 0 0.0 0.0 0.00 0.00 0.00 71 1019.9
20260502010838 48 0 0.0 0.0 0.00 0.00 0.00 71 1019.9
20260502010738 48 0 0.0 0.0 0.00 0.00 0.00 71 1020.0
20260502010634 48 0 0.0 0.0 0.00 0.00 0.00 71 1020.0
20260502010533 48 0 0.0 0.0 0.00 0.00 0.00 71 1020.0
20260502010431 48 0 0.0 0.0 0.00 0.00 0.00 71 1020.1
20260502010331 48 0 0.0 0.0 0.00 0.00 0.00 70 1020.0
20260502010232 48 0 0.0 0.0 0.00 0.00 0.00 70 1020.0
20260502010131 48 0 0.0 0.0 0.00 0.00 0.00 70 1020.0
20260502010031 48 0 0.0 0.0 0.00 0.00 0.00 70 1020.0
20260502005931 48 0 0.0 0.0 0.00 0.00 0.00 70 1020.0
20260502005831 48 0 0.0 0.0 0.00 0.00 0.00 70 1020.1
20260502005733 48 0 0.0 0.0 0.00 0.00 0.00 70 1020.0
20260502005631 48 0 0.0 0.0 0.00 0.00 0.00 70 1020.1
20260502005531 48 0 0.0 0.0 0.00 0.00 0.00 70 1020.1
20260502005431 48 0 0.0 0.0 0.00 0.00 0.00 70 1020.1
20260502005332 48 0 0.0 0.0 0.00 0.00 0.00 70 1020.1
20260502005231 48 0 0.0 0.0 0.00 0.00 0.00 70 1020.1
20260502005131 48 0 0.0 0.0 0.00 0.00 0.00 70 1020.1